Content
SEND FEEDBACK

Daily
Averages
Monthly
Summary
United States of America

CHASE, SOUTH DAKOTA


Home > North America > United States > South Dakota
Elevation: 2370 feet     Latitude: 44 50N     Longitude: 101 37W

WEATHER
 
SELECT A DAY
Number of Records: 133,260;   Date Range: 5/27/98 - 7/7/14
 
SHARE

PRINT THIS DATA

[ ← Previous Day ]
WEATHER ALMANAC - JANUARY 31, 2013
[ Next Day → ]
[ °C ]   °F
Weather ElementAverageHighLow
Temperature-2.4 °F5 °F (10:56 pm)-13 °F (7:56 am)
Dewpoint-10.2 °F (11:56 pm)-20 °F (7:56 am)
Humidity69.1 %80 % (11:56 pm)60 % (1:56 pm)
Barometer30.37 in30.49 in (9:56 am)30.18 in (1:56 am)
Wind Speed14.5 mph28.8 mph (2:56 am)
Wind Gust34.5 mph (2:56 am)
Weather ElementAverage
Wind DirectionW (270 °)

Weather ElementTotal
Precipitation---
Heating Degree Days69 (Base 65)
Averaged from 23 records on January 31, 2013
WEATHER CONDITIONS BREAKOUT
WIND DIRECTION BREAKOUT
WEATHER BY HOUR - JANUARY 31, 2013
[ °C ]   °F
Local TimeTemperatureDewpointHumidityBarometerVisibilityWind DirectionWind SpeedGust SpeedPrecipitationEventsConditions
1:56 AM-0.9 °F-7.1 °F75 %30.18 inNNW (330°)19.6 mph26.5 mph
2:56 AM-2.0 °F-8.0 °F76 %30.20 inNNW (330°)28.8 mph34.5 mph
3:56 AM-4.0 °F-11.0 °F72 %30.25 inNNW (330°)24.2 mph
4:56 AM-8.0 °F-15.0 °F71 %30.30 inNNW (330°)23.0 mph31.1 mph
5:56 AM-11.9 °F-18.9 °F71 %30.35 inNW (320°)21.9 mph
6:56 AM-11.9 °F-18.9 °F71 %30.39 inNNW (330°)26.5 mph33.4 mph
7:56 AM-13.0 °F-20.0 °F71 %30.44 inNW (310°)16.1 mph
8:56 AM-11.0 °F-18.9 °F68 %30.48 inWNW (300°)16.1 mph25.3 mph
9:56 AM-9.0 °F-18.0 °F65 %30.49 inNW (310°)21.9 mph
10:56 AM-6.0 °F-16.1 °F62 %30.48 inNW (320°)17.3 mph
11:56 AM-2.9 °F-13.0 °F62 %30.45 inNW (310°)16.1 mph
12:56 PM-0.9 °F-11.0 °F62 %30.44 inNW (310°)16.1 mph
1:56 PM1.0 °F-9.9 °F60 %30.41 inNW (320°)10.4 mph
2:56 PM1.9 °F-9.0 °F60 %30.41 inNW (320°)10.4 mph
3:56 PM1.0 °F-9.0 °F63 %30.41 inNW (320°)5.8 mph
4:56 PM0.0 °F-9.0 °F66 %30.41 inWest (270°)3.5 mph
5:56 PM1.9 °F-6.0 °F69 %30.41 inSW (230°)3.5 mph
6:56 PM1.9 °F-6.0 °F69 %30.40 inCalm
7:56 PM1.9 °F-5.1 °F72 %30.40 inSouth (180°)8.1 mph
8:56 PM3.9 °F-2.9 °F73 %30.38 inSSW (200°)6.9 mph
9:56 PM3.9 °F-2.0 °F76 %30.33 inSouth (170°)12.7 mph
10:56 PM5.0 °F-0.9 °F76 %30.31 inSouth (190°)15.0 mph
11:56 PM5.0 °F0.0 °F80 %30.28 inSouth (180°)10.4 mph
Hourly data recorded from KD07, located miles away from Chase, South Dakota







STORIES FROM OUR PARTNERS